Bismarck, ND

2:36 PM CDT on October 18, 2017 (GMT -0500)
Bismarck Municipal

Weather History for KBIS - October, 2011

Change the Weather History Date:

Thursday, October 20, 2011

  Actual Average Record
Temperature  
Mean Temperature 39 °F 43 °F  
Max Temperature 55 °F 56 °F 82 °F (1901)
Min Temperature 22 °F 31 °F 13 °F (1916)
Degree Days  
Heating Degree Days 26 22  
Month to date heating degree days 264 353  
Since 1 July heating degree days 491 639  
Cooling Degree Days 0 0  
Month to date cooling degree days 14 0  
Year to date cooling degree days 425 519  
Moisture  
Dew Point 26 °F    
Average Humidity 66    
Maximum Humidity 100    
Minimum Humidity 32    
Precipitation  
Precipitation 0.00 in 0.04 in 1.00 in (1883)
Month to date precipitation 1.11 0.85  
Year to date precipitation 22.45 16.25  
Snow  
Snow 0.00 in 0.10 in 0.70 in (1936)
Month to date snowfall 0.0 0.8  
Since 1 July snowfall 0.0 1.0  
Since 1 September snowfall 0.0 1.0  
Snow Depth 0.00 in    
Sea Level Pressure  
Sea Level Pressure 30.04 in    
Wind  
Wind Speed 7 mph (SE)    
Max Wind Speed 16 mph    
Max Gust Speed 20 mph    
Visibility 8 miles    
Events Fog    
T = Trace of Precipitation, MM = Missing Value Source: NWS Daily Summary

Daily Weather History Graph

Daily Weather History Graph

Search for Another Location

Airport or City:

Trip Planner

Search our weather history database for the weather conditions in past years. The results will help you decide how hot, cold, wet, or windy it might be!

Date:

Astronomy

Oct. 20, 2011 Rise Set
Actual Time 8:07 AM CDT 6:47 PM CDT
Civil Twilight 7:36 AM CDT 7:18 PM CDT
Nautical Twilight 7:01 AM CDT 7:53 PM CDT
Astronomical Twilight 6:26 AM CDT 8:28 PM CDT
Moon 12:28 AM CDT (10/20) 3:21 PM CDT (10/20)
Length of Visible Light 11h 41m
Length of Day
10h 39m
Last Quarter, 44% of the Moon is Illuminated
Oct 20
Last Quarter
Oct 26
New
Nov 2
First Quarter
Nov 10
Full
Nov 18
Last Quarter

Hourly Weather History & Observations

Time (CDT) Temp. Windchill Dew Point Humidity Pressure Visibility Wind Dir Wind Speed Gust Speed Precip Events Conditions
12:52 AM 28.0 °F 24.2 °F 23.0 °F 81% 30.17 in 10.0 mi East 3.5 mph - N/A   Clear
1:52 AM 23.0 °F 17.0 °F 21.0 °F 92% 30.16 in 10.0 mi East 4.6 mph - N/A   Clear
2:52 AM 26.1 °F 21.9 °F 23.0 °F 88% 30.15 in 10.0 mi ENE 3.5 mph - N/A   Clear
3:52 AM 25.0 °F 20.7 °F 23.0 °F 92% 30.14 in 10.0 mi ESE 3.5 mph - N/A   Clear
4:52 AM 23.0 °F 13.9 °F 21.0 °F 92% 30.13 in 10.0 mi East 8.1 mph - N/A   Clear
5:52 AM 23.0 °F 17.0 °F 21.0 °F 92% 30.13 in 10.0 mi East 4.6 mph - N/A   Clear
6:52 AM 24.1 °F 17.0 °F 21.9 °F 91% 30.13 in 10.0 mi East 5.8 mph - N/A   Clear
7:52 AM 23.0 °F 15.8 °F 21.9 °F 96% 30.13 in 10.0 mi ESE 5.8 mph - N/A   Clear
7:54 AM 23.0 °F 15.8 °F 21.2 °F 93% 30.05 in 0.5 mi ESE 5.8 mph - N/A   Partly Cloudy
8:04 AM 24.8 °F 17.9 °F 23.0 °F 93% 30.05 in 0.2 mi ESE 5.8 mph - N/A Fog Light Freezing Fog
8:15 AM 24.8 °F 20.5 °F 23.0 °F 93% 30.05 in 0.2 mi ESE 3.5 mph - N/A Fog Light Freezing Fog
8:24 AM 24.8 °F 16.9 °F 23.0 °F 93% 30.05 in 2.0 mi ESE 6.9 mph - N/A   Overcast
8:39 AM 26.6 °F 20.0 °F 24.8 °F 93% 30.04 in 3.0 mi ESE 5.8 mph - N/A   Overcast
8:52 AM 27.0 °F 18.7 °F 26.1 °F 96% 30.12 in 10.0 mi SE 8.1 mph - N/A   Scattered Clouds
9:52 AM 32.0 °F 26.4 °F 30.0 °F 92% 30.11 in 10.0 mi SSE 5.8 mph - N/A   Clear
10:52 AM 37.9 °F 32.1 °F 30.0 °F 73% 30.09 in 10.0 mi South 8.1 mph - N/A   Clear
11:52 AM 43.0 °F 36.8 °F 28.9 °F 58% 30.07 in 10.0 mi South 11.5 mph - N/A   Clear
12:52 PM 46.9 °F - 28.9 °F 50% 30.05 in 10.0 mi South 10.4 mph - N/A   Clear
1:52 PM 50.0 °F - 27.0 °F 41% 30.01 in 10.0 mi South 13.8 mph - N/A   Clear
2:52 PM 51.8 °F - 26.6 °F 38% 29.93 in 10.0 mi South 10.4 mph - N/A   Clear
3:52 PM 54.0 °F - 28.0 °F 37% 29.96 in 10.0 mi South 12.7 mph - N/A   Clear
4:52 PM 55.0 °F - 27.0 °F 34% 29.96 in 10.0 mi South 11.5 mph - N/A   Clear
5:52 PM 54.0 °F - 27.0 °F 35% 29.95 in 10.0 mi South 10.4 mph - N/A   Clear
6:52 PM 46.0 °F 41.4 °F 30.0 °F 54% 29.96 in 10.0 mi SSE 9.2 mph - N/A   Clear
7:52 PM 45.0 °F 40.1 °F 30.0 °F 56% 29.96 in 10.0 mi South 9.2 mph - N/A   Clear
8:52 PM 39.0 °F 35.7 °F 28.9 °F 67% 29.95 in 10.0 mi SSE 4.6 mph - N/A   Clear
9:52 PM 37.9 °F 34.4 °F 28.9 °F 70% 29.94 in 10.0 mi South 4.6 mph - N/A   Clear
10:52 PM 45.0 °F 41.8 °F 30.0 °F 56% 29.92 in 10.0 mi SSW 5.8 mph - N/A   Clear
11:52 PM 39.9 °F - 30.0 °F 68% 29.92 in 10.0 mi Calm Calm - N/A   Clear